Franklin, PA

10:47 PM EST on November 21, 2019 (GMT -0500)
Venango Regional

Weather History for KFKL - September, 2019

Change the Weather History Date:

Sunday, September 15, 2019

  Actual Average Record
Temperature  
Mean Temperature 57 °F -  
Max Temperature 73 °F 74 °F 92 °F (1930)
Min Temperature 50 °F 51 °F 35 °F (1963)
Degree Days  
Heating Degree Days 8    
Growing Degree Days 7 (Base 50)    
Moisture  
Dew Point 53 °F    
Average Humidity 99    
Maximum Humidity 100    
Minimum Humidity 94    
Precipitation  
Precipitation 0.00 in - - ()
Sea Level Pressure  
Sea Level Pressure 30.23 in    
Wind  
Wind Speed 1 mph (South)    
Max Wind Speed 7 mph    
Max Gust Speed -    
Visibility 3 miles    
Events Fog    
Averages and records for this station are not official NWS values.
T = Trace of Precipitation, MM = Missing Value Source: NWS Daily Summary

Daily Weather History Graph

Daily Weather History Graph

Search for Another Location

Airport or City:

Astronomy

Sep. 15, 2019 Rise Set
Actual Time 6:59 AM EDT 7:29 PM EDT
Civil Twilight 6:31 AM EDT 7:56 PM EDT
Nautical Twilight 5:59 AM EDT 8:29 PM EDT
Astronomical Twilight 5:25 AM EDT 9:03 PM EDT
Moon 8:35 PM EDT (9/15) 8:08 AM EDT (9/15)
Length of Visible Light 13h 25m
Length of Day
12h 29m
Full, 98% of the Moon is Illuminated
Sep 15
Full
Sep 21
Last Quarter
Sep 28
New
Oct 5
First Quarter
Oct 13
Full

Hourly Weather History & Observations

Time (EDT) Temp. Dew Point Humidity Pressure Visibility Wind Dir Wind Speed Gust Speed Precip Events Conditions
12:03 AM 55.4 °F 55.4 °F 100% 30.24 in 0.8 mi Calm Calm - N/A   Clear
12:06 AM 55.4 °F 55.4 °F 100% 30.24 in 1.2 mi Calm Calm - N/A   Clear
12:14 AM 55.4 °F 55.4 °F 100% 30.24 in 2.5 mi Calm Calm - N/A   Clear
12:25 AM 55.4 °F 55.4 °F 100% 30.24 in 10.0 mi Calm Calm - N/A   Clear
12:42 AM 53.6 °F 53.6 °F 100% 30.24 in 1.2 mi Calm Calm - N/A   Clear
12:45 AM 53.6 °F 53.6 °F 100% 30.24 in 0.5 mi Calm Calm - N/A Fog Fog
12:53 AM 55.4 °F 55.4 °F 100% 30.24 in 1.2 mi Calm Calm - N/A   Clear
12:56 AM 55.0 °F 54.0 °F 96% 30.23 in 2.5 mi Calm Calm - N/A   Clear
12:58 AM 53.6 °F 53.6 °F 100% 30.24 in 1.0 mi Calm Calm - N/A   Clear
1:11 AM 55.4 °F 53.6 °F 94% 30.24 in 1.2 mi Calm Calm - N/A   Clear
1:14 AM 53.6 °F 53.6 °F 100% 30.24 in 4.0 mi Calm Calm - N/A   Clear
1:56 AM 53.1 °F 53.1 °F 100% 30.24 in 3.0 mi Calm Calm - N/A   Clear
2:17 AM 51.8 °F 51.8 °F 100% 30.24 in 1.8 mi Calm Calm - N/A   Clear
2:21 AM 51.8 °F 51.8 °F 100% 30.24 in 0.8 mi Calm Calm - N/A   Clear
2:31 AM 51.8 °F 51.8 °F 100% 30.24 in 1.5 mi SSW 4.6 mph - N/A   Clear
2:33 AM 51.8 °F 51.8 °F 100% 30.24 in 3.0 mi SSW 3.5 mph - N/A   Clear
2:56 AM 53.1 °F 52.0 °F 96% 30.23 in 1.5 mi Calm Calm - N/A   Clear
2:58 AM 51.8 °F 51.8 °F 100% 30.23 in 0.8 mi Calm Calm - N/A   Mist
3:08 AM 53.6 °F 53.6 °F 100% 30.23 in 1.2 mi Calm Calm - N/A   Partly Cloudy
3:11 AM 53.6 °F 53.6 °F 100% 30.23 in 4.0 mi Calm Calm - N/A   Clear
3:17 AM 53.6 °F 53.6 °F 100% 30.23 in 1.8 mi Calm Calm - N/A   Clear
3:21 AM 53.6 °F 51.8 °F 94% 30.23 in 0.8 mi Calm Calm - N/A   Mist
3:32 AM 53.6 °F 51.8 °F 94% 30.23 in 1.5 mi Calm Calm - N/A   Partly Cloudy
3:56 AM 52.0 °F 51.1 °F 97% 30.22 in 10.0 mi South 3.5 mph - N/A   Clear
4:56 AM 51.1 °F 50.0 °F 96% 30.22 in 6.0 mi Calm Calm - N/A   Clear
5:56 AM 50.0 °F 50.0 °F 100% 30.23 in 10.0 mi Calm Calm - N/A   Clear
5:59 AM 51.8 °F 50.0 °F 94% 30.23 in 1.5 mi South 3.5 mph - N/A   Partly Cloudy
6:05 AM 50.0 °F 50.0 °F 100% 30.23 in 0.8 mi South 3.5 mph - N/A   Mist
6:09 AM 51.8 °F 50.0 °F 94% 30.23 in 1.5 mi South 3.5 mph - N/A   Partly Cloudy
6:13 AM 50.0 °F 50.0 °F 100% 30.23 in 3.0 mi SSW 3.5 mph - N/A   Partly Cloudy
6:32 AM 51.8 °F 51.8 °F 100% 30.23 in 1.8 mi SSW 5.8 mph - N/A   Partly Cloudy
6:36 AM 51.8 °F 51.8 °F 100% 30.23 in 0.8 mi SSW 5.8 mph - N/A   Mist
6:47 AM 51.8 °F 51.8 °F 100% 30.23 in 1.2 mi SSW 4.6 mph - N/A   Partly Cloudy
6:56 AM 51.1 °F 51.1 °F 100% 30.23 in 1.5 mi SSW 5.8 mph - N/A   Partly Cloudy
7:08 AM 51.8 °F 50.0 °F 94% 30.23 in 3.0 mi SSW 6.9 mph - N/A   Clear
7:56 AM 54.0 °F 54.0 °F 100% 30.23 in 10.0 mi South 4.6 mph - N/A   Clear
10:56 PM 64.9 °F 64.0 °F 97% 30.12 in 10.0 mi NE 4.6 mph - 0.00 in   Overcast
11:56 PM 64.9 °F 64.0 °F 97% 30.12 in 10.0 mi East 3.5 mph - 0.00 in   Overcast